Regional Weather Roundup
Issued by NWS

Home | Current Version | Previous Version | Text Only | Print | Product List | Glossary Off
Versions: 1 2 3 4 5 6 7 8 9 10 11 12 13 14 15 16 17 18 19 20 21 22 23 24 25 26 27 28 29 30 31 32 33 34 35 36 37 38 39 40 41 42 43 44 45 46 47 48 49 50

000
ASUS45 KTFX 151519
RWRMT
MONTANA HOURLY WEATHER ROUNDUP
NATIONAL WEATHER SERVICE GREAT FALLS MT
919 AM MDT TUE APR 15 2014

NOTE: "FAIR" INDICATES FEW OR NO CLOUDS BELOW 12000 FEET WITH NO
SIGNIFICANT WEATHER AND/OR OBSTRUCTIONS TO VISIBILITY.

* THESE STATIONS ARE NOT UNDER NWS QUALITY CONTROL. THEY DO NOT
   REPORT WEATHER SUCH AS PRECIPITATION OR FOG.

MTZ001>007-043-151600-
WEST OF THE DIVIDE
CITY           SKY/WX    TMP DP  RH WIND       PRES   REMARKS
KALISPELL      CLOUDY    37  28  70 CALM      29.76S
MISSOULA       CLOUDY    39  30  70 E3        29.83F
BUTTE          CLOUDY    45  19  35 W7        29.79F
MULLAN PASS    LGT SNOW  28  27  96 VRB7G23   29.82S VSB 1 3/4 WCI  21
* ESSEX        N/A       40  24  53 N1G6       N/A
* LINCOLN      N/A       45  21  38 S6G18      N/A
* LOOKOUT PASS N/A       37  28  70 SE11G17    N/A   WCI  29
* POLSON       N/A       46  27  48 S2G9       N/A
* SEELEY LAKE  N/A       32  27  82 SW1        N/A
* THOMP F APT  CLOUDY    33  12  42 E4G9       N/A
$$

MTZ008-052>055-151600-
SOUTHWEST MONTANA
CITY           SKY/WX    TMP DP  RH WIND       PRES   REMARKS
BOZEMAN        CLOUDY    46  25  44 CALM      29.77F
DILLON         CLOUDY    43  14  31 SW15      29.79F
W YELLOWSTONE  N/A       36  16  44 SW5G11     N/A   WCI  32
* THREE FORKS  CLOUDY    48  21  34 N/A        N/A
* BOULDER HILL N/A       41  11  29 SW7        N/A
* MONIDA PASS  N/A       32  13  45 SE20G26    N/A   WCI  20
* RAYNOLDS PAS N/A       29  12  49 S16G21     N/A   WCI  17
* WHITEHALL    N/A       46  18  33 W5G10      N/A
* WISE RIVER   N/A       37  21  52 W5         N/A   WCI  33
$$

MTZ009>010-012-014-046-048-049-054-151600-
EAST SLOPES AND CENTRAL MONTANA
CITY           SKY/WX    TMP DP  RH WIND       PRES   REMARKS
CUT BANK       CLOUDY    45  21  38 W14       29.67S
GREAT FALLS    CLOUDY    50  25  38 SW17      29.67F
HELENA         CLOUDY    41  21  45 CALM      29.76S
MALMSTROM AFB  CLOUDY    52  21  30 SW15      29.66F
* CONRAD       CLOUDY    43  25  49 S6         N/A
* DEARBORN     N/A       52  22  31 S11G20     N/A
* EAST GLACIER N/A       43  17  35 NW16G28    N/A
* MONARCH      N/A       44   9  24 SW17G26    N/A
* PENDROY      N/A       45  19  35 NW7        N/A
* ROGERS PASS  N/A       41  20  43 E9G17      N/A
* SAINT MARY   N/A       42  17  36 S7G16      N/A
* SWEET GRASS  N/A       46  18  33 S17G24     N/A
* WHITE SULPH  N/A       43  18  37 S3         N/A
$$

MTZ011-013-016-021-035-040-045-047-050-051-151600-
NORTH CENTRAL MONTANA
CITY           SKY/WX    TMP DP  RH WIND       PRES   REMARKS
HAVRE          CLOUDY    48  25  41 W8        29.61F
LEWISTOWN      CLOUDY    50  23  35 W8        29.67F
* FORT BENTON  CLOUDY    50  23  35 SW13      29.66F
* MALTA APT    CLOUDY    34  18  52 CALM      29.61F
* CHESTER      N/A       48  17  29 NW8G14     N/A
* DENTON       N/A       51  20  29 W11        N/A
* GEYSER       N/A       50  13  23 SW28G34    N/A
* JUDITH GAP   N/A       46  16  30 S6         N/A
* LOMA         N/A       47  23  39 SW15       N/A
$$

MTZ017>020-022>027-061-062-151600-
NORTHEAST MONTANA
CITY           SKY/WX    TMP DP  RH WIND       PRES   REMARKS
GLASGOW        CLOUDY    36  16  44 SE12      29.63F WCI  28
GLENDIVE       CLOUDY    37  18  46 SE8       29.68F WCI  31
JORDAN         CLOUDY    48  21  34 W10       29.62F
SIDNEY         PTSUNNY   34  16  48 S13       29.73F WCI  25
WOLF POINT     PTSUNNY   37  16  42 E9        29.67F WCI  30
* BEAVER HILL  N/A       34  18  52 SE14       N/A   WCI  24
* CIRCLE       N/A       37  24  59 S2         N/A
* LINDSAY DVD  N/A       32  17  54 SE9        N/A   WCI  24
* NAVAJO       N/A       28  13  53 SE12G19    N/A   WCI  18
* SACO         N/A       34  15  46 E1         N/A
$$

MTZ028>042-056>058-151600-
SOUTHCENTRAL AND SOUTHEAST MONTANA
CITY           SKY/WX    TMP DP  RH WIND       PRES   REMARKS
BAKER          PTSUNNY   36  19  50 SE12      29.70F WCI  28
BILLINGS       PTSUNNY   48  19  32 SW18      29.72F
LIVINGSTON     PTCLDY    52  16  24 SW37G48   29.72F
MILES CITY     PTSUNNY   41  25  53 VRB5      29.66F
* LAUREL APT   CLOUDY    48  18  30 SW15G22    N/A
* ROUNDUP APT  CLOUDY    46  18  33 SW13G18    N/A
* HYSHAM       N/A       45  20  37 W9         N/A
* REED POINT   N/A       41  27  58 E4         N/A
* ROSCOE HILL  N/A       45   9  23 SW19G27    N/A
$$

REGIONAL REPORTS...DAKOTAS
CITY           SKY/WX    TMP DP  RH WIND       PRES   REMARKS
WILLISTON      PTSUNNY   30  12  47 SE14      29.76F WCI  19
DICKINSON      CLOUDY    28  14  56 SE17      29.76F WCI  16
CROSBY         SUNNY     28  12  51 S21G28    29.77F WCI  14
TIOGA          SUNNY     25  12  58 SE20G29   29.82F WCI  11
WATFORD CITY   SUNNY     30  12  47 SE23G28   29.74F WCI  17
BISMARCK       CLOUDY    28  14  56 S17       29.94F WCI  16
GRAND FORKS    PTSUNNY   19   7  59 VRB3      30.11F
FARGO          SUNNY     21   3  45 CALM      30.16F
BUFFALO SD     PTSUNNY   32  18  56 S13       29.67F WCI  22
RAPID CITY     PTCLDY    37  21  52 SE3       29.76F
$$

REGIONAL REPORTS...WYOMING/IDAHO/WASHINGTON
CITY           SKY/WX    TMP DP  RH WIND       PRES   REMARKS
GILLETTE       CLOUDY    45  21  38 SW17      29.77S
SHERIDAN       CLOUDY    43  28  56 SW5       29.74F
CODY           PTSUNNY   46  12  25 NW8G21    29.81S
YELLOWSTONE LA PTCLDY    27   9  46 CALM      29.94F
SALMON         CLOUDY    39  23  53 N8        29.82S WCI  33
MULLAN PASS    LGT SNOW  28  27  96 VRB7G23   29.82S VSB 1 3/4 WCI  21
SAND POINT     PTSUNNY   46  30  54 SW6       29.83R
SPOKANE        CLOUDY    46  27  48 W10       29.87R
$$

REGIONAL REPORTS...ALBERTA
CITY           SKY/WX    TMP DP  RH WIND       PRES   REMARKS
CALGARY        CLOUDY    46  14  27 N21       29.66R
LETHBRIDGE     CLOUDY    50  21  32 W25G39    29.63F
MEDICINE HAT   PTSUNNY   50  21  32 W20       29.56F
EDMONTON       PTSUNNY   36  21  54 CALM      29.72R
WATERTON GATE  N/A       43  19  38 SW15G22    N/A
CARDSTON       N/A       46  21  37 W14G25     N/A
MILK RIVER     N/A       46  21  37 W16        N/A
$$

REGIONAL REPORTS...SASKATCHEWAN
CITY           SKY/WX    TMP DP  RH WIND       PRES   REMARKS
SWIFT CURRENT  PTSUNNY   36  18  48 S14       29.56F WCI  27
MOOSE JAW      PTSUNNY   30  12  47 SE21      29.69F WCI  17
REGINA         PTSUNNY   28  16  61 SE28G36   29.74F WCI  13
VAL MARIE      N/A       37  16  42 S8         N/A   WCI  31
ASSINIBOIA     N/A       30  16  56 SE12G17    N/A   WCI  20
CORONACH       N/A       30  14  51 SE15       N/A   WCI  19

$$




USA.gov is the U.S. government's official web portal to all federal, state and local government web resources and services.